Torna al catalogo

STARLINK-30073

AttivoComunicazioniVLEO
NORAD 56840·PAYLOAD·🇺🇸 United States

Lanciato Jun 4, 2023 da Cape Canaveral Space Force Station

Loading…

Prossimi Passaggi (prossime 24 ore)

TLE

AggiornatoSource: CelesTrak SupGP

Epoca: Sep 14, 2026, 22:35 UTC

1 56840C 23079T   26257.94145833  .00008152  00000+0  29506-3 0  2570
2 56840  43.0031 303.5839 0001484 268.2077 220.2428 15.27595304    18

Traccia STARLINK-30073 in tempo reale con AllMySat

Download on the App Store